Weather reports worldwide

Advertisment
Meppen, Germany (10304): temperature & dewpoint: 07.12.2019 05:00:00 - 13.12.2019 05:00:00 (CET)Meppen, Germany (10304): wind speed & gusts: 07.12.2019 05:00:00 - 13.12.2019 05:00:00 (CET)Meppen, Germany (10304): wind direction: 07.12.2019 05:00:00 - 13.12.2019 05:00:00 (CET)Meppen, Germany (10304): reduced air pressure: 07.12.2019 05:00:00 - 13.12.2019 05:00:00 (CET)Meppen, Germany (10304): visibility: 07.12.2019 05:00:00 - 13.12.2019 05:00:00 (CET)
Date & Time tt [°C] td [°C] ff [km/h] ff [kn] fx [km/h] fx [kn] dd ppp [hPa] vv [km]
13.12.2019 05:00:00 3,7 -1,6 14 8 - - SE 978,3 -
13.12.2019 04:00:00 3,2 -1,7 18 10 - - SE 979,6 -
13.12.2019 03:00:00 2,8 -1,9 14 8 - - SSE 981,0 -
13.12.2019 02:00:00 2,8 -1,5 14 8 - - SE 982,5 -
13.12.2019 01:00:00 2,9 -1,2 14 8 - - SE 984,3 -
13.12.2019 00:00:00 3,0 -1,2 18 10 - - SSE 986,0 -
12.12.2019 23:00:00 3,1 -1,1 22 12 - - SSE 987,6 -
12.12.2019 22:00:00 2,9 -1,0 18 10 - - SSE 989,4 -
12.12.2019 21:00:00 3,0 -0,6 18 10 - - SSE 990,9 -
12.12.2019 20:00:00 3,1 -0,5 14 8 - - SSE 992,1 -
12.12.2019 19:00:00 2,9 -0,2 14 8 - - SSE 993,5 -
12.12.2019 18:00:00 3,2 0,0 7 4 - - SSE 994,8 -
12.12.2019 17:00:00 3,7 0,0 11 6 - - S 995,9 -
12.12.2019 16:00:00 4,5 0,4 11 6 - - SSW 996,9 -
12.12.2019 15:00:00 5,1 0,9 14 8 - - SSW 997,6 -
12.12.2019 14:00:00 5,0 1,5 18 10 - - SW 998,4 25
12.12.2019 13:00:00 5,0 1,7 22 12 - - SW 999,3 20
12.12.2019 12:00:00 5,4 2,5 18 10 - - SW 999,9 18
12.12.2019 11:00:00 5,0 3,1 14 8 - - SW 1000,4 17
12.12.2019 10:00:00 4,8 3,0 14 8 - - SW 1000,6 15
12.12.2019 09:00:00 4,8 3,1 14 8 - - SW 1000,5 17
12.12.2019 08:00:00 4,9 3,1 14 8 - - SW 1000,4 25
12.12.2019 07:00:00 5,0 3,2 14 8 - - SSW 1000,5 22
12.12.2019 06:00:00 4,9 3,2 14 8 - - SSW 1000,5 -
12.12.2019 05:00:00 4,8 3,0 14 8 - - SW 1000,8 -
12.12.2019 04:00:00 5,3 3,6 14 8 - - SW 1001,2 -
12.12.2019 03:00:00 5,2 4,0 11 6 - - SSW 1001,6 -
12.12.2019 02:00:00 5,1 4,1 11 6 - - SSW 1002,0 -
12.12.2019 01:00:00 4,9 3,7 11 6 - - SSW 1002,3 -
12.12.2019 00:00:00 4,8 3,6 11 6 - - SSW 1002,9 -
11.12.2019 23:00:00 4,7 3,6 11 6 - - SSW 1003,2 -
11.12.2019 22:00:00 4,8 3,6 11 6 - - SW 1003,6 -
11.12.2019 21:00:00 5,1 3,8 14 8 - - SW 1003,8 -
11.12.2019 20:00:00 5,4 4,2 11 6 - - SW 1004,1 -
11.12.2019 19:00:00 5,4 4,8 7 4 - - SSW 1004,3 -
11.12.2019 18:00:00 5,5 4,9 11 6 - - SSW 1004,4 -
11.12.2019 17:00:00 5,7 4,9 7 4 - - SSW 1004,6 -
11.12.2019 16:00:00 5,9 5,2 7 4 - - SSW 1004,8 -
11.12.2019 15:00:00 6,0 5,3 11 6 - - SSW 1005,0 -
11.12.2019 14:00:00 6,1 5,0 14 8 - - SSW 1005,7 4,8
11.12.2019 13:00:00 6,0 5,0 11 6 - - SSW 1006,3 5
11.12.2019 12:00:00 5,9 5,0 11 6 - - SSW 1007,0 7
11.12.2019 11:00:00 5,7 4,8 11 6 - - SSW 1007,7 7
11.12.2019 10:00:00 5,4 4,6 11 6 - - SSW 1008,1 6
11.12.2019 09:00:00 5,2 4,3 11 6 - - SSW 1008,2 8
11.12.2019 08:00:00 5,2 4,2 18 10 - - SSW 1008,3 11
11.12.2019 07:00:00 5,2 4,0 18 10 - - SSW 1008,3 12
11.12.2019 06:00:00 5,4 3,7 22 12 - - SSW 1008,4 -
11.12.2019 05:00:00 5,7 2,9 25 14 - - SSW 1008,5 -
11.12.2019 04:00:00 6,6 1,2 22 12 - - SSW 1008,5 -
11.12.2019 03:00:00 6,9 0,0 25 14 50 27 SSW 1008,8 -
11.12.2019 02:00:00 6,9 -0,3 25 14 - - SSW 1009,2 -
11.12.2019 01:00:00 6,5 -1,0 29 16 - - SSW 1009,8 -
11.12.2019 00:00:00 6,6 -2,3 29 16 50 27 SSW 1010,7 -
10.12.2019 23:00:00 6,2 -2,7 22 12 50 27 SSW 1011,4 -
10.12.2019 22:00:00 5,8 -2,2 22 12 - - SSW 1012,0 -
10.12.2019 21:00:00 5,6 -1,3 25 14 61 33 SSW 1013,3 -
10.12.2019 20:00:00 5,5 -0,4 22 12 - - S 1014,6 -
10.12.2019 19:00:00 5,1 -0,3 22 12 - - S 1015,9 -
10.12.2019 18:00:00 4,9 -0,1 22 12 - - S 1016,9 -
10.12.2019 17:00:00 4,7 0,0 18 10 - - SSW 1018,1 -
10.12.2019 16:00:00 4,9 0,3 18 10 - - SSW 1019,2 -
10.12.2019 15:00:00 5,4 1,1 18 10 - - SSW 1020,2 -
10.12.2019 14:00:00 5,7 1,3 18 10 - - SSW 1021,3 40
10.12.2019 13:00:00 5,4 1,5 18 10 - - SW 1022,2 40
10.12.2019 12:00:00 4,5 0,9 18 10 - - SW 1023,0 40
10.12.2019 11:00:00 3,3 0,3 14 8 - - SW 1023,7 40
10.12.2019 10:00:00 1,8 -0,5 11 6 - - SW 1023,5 40
10.12.2019 09:00:00 -0,1 -1,1 7 4 - - WSW 1023,3 35
10.12.2019 08:00:00 -0,5 -1,2 11 6 - - SW 1023,1 35
10.12.2019 07:00:00 -0,3 -1,3 7 4 - - W 1022,7 30
10.12.2019 06:00:00 0,3 -1,1 11 6 - - WSW 1022,2 -
10.12.2019 05:00:00 1,1 -0,7 11 6 - - W 1021,8 -
10.12.2019 04:00:00 1,9 -0,6 11 6 - - W 1021,0 -
10.12.2019 03:00:00 2,1 -0,4 11 6 - - W 1020,2 -
10.12.2019 02:00:00 1,9 -0,2 11 6 - - W 1018,8 -
10.12.2019 01:00:00 2,9 -0,2 11 6 - - W 1018,1 -
10.12.2019 00:00:00 3,0 -0,4 11 6 - - W 1016,9 -
09.12.2019 23:00:00 3,9 0,0 11 6 - - WNW 1015,4 -
09.12.2019 22:00:00 3,9 0,4 11 6 - - WNW 1014,3 -
09.12.2019 21:00:00 4,5 0,7 11 6 - - WNW 1012,7 -
09.12.2019 20:00:00 5,3 1,3 14 8 - - WNW 1010,8 -
09.12.2019 19:00:00 6,3 1,5 18 10 - - NNW 1008,7 -
09.12.2019 18:00:00 6,1 3,2 11 6 - - NW 1006,4 -
09.12.2019 17:00:00 6,0 4,0 14 8 - - NNW 1004,1 -
09.12.2019 16:00:00 6,8 4,5 14 8 - - NW 1001,7 -
09.12.2019 15:00:00 7,5 5,0 11 6 - - W 999,5 -
09.12.2019 14:00:00 7,4 4,7 18 10 - - WSW 998,2 30
09.12.2019 13:00:00 7,1 4,2 14 8 - - W 996,8 45
09.12.2019 12:00:00 6,3 4,5 11 6 - - WSW 995,7 45
09.12.2019 11:00:00 5,8 4,6 11 6 - - SW 995,1 25
09.12.2019 10:00:00 6,1 3,8 11 6 - - WSW 994,4 7
09.12.2019 09:00:00 6,8 3,4 22 12 - - SW 993,7 40
09.12.2019 08:00:00 7,0 3,2 22 12 - - SSW 992,9 40
09.12.2019 07:00:00 6,2 3,0 18 10 - - SSW 993,1 40
09.12.2019 06:00:00 6,5 3,3 22 12 - - SW 993,2 -
09.12.2019 05:00:00 6,7 3,3 22 12 - - SW 993,5 -
09.12.2019 04:00:00 6,7 3,5 22 12 - - SW 993,8 -
09.12.2019 03:00:00 6,9 3,1 25 14 - - SW 994,3 -
09.12.2019 02:00:00 7,0 3,3 25 14 47 25 SW 994,2 -
09.12.2019 01:00:00 7,2 3,6 25 14 - - SW 994,2 -
09.12.2019 00:00:00 6,0 4,0 11 6 - - SW 994,6 -
08.12.2019 23:00:00 6,2 3,1 29 16 54 29 W 995,0 -
08.12.2019 22:00:00 8,0 4,6 22 12 - - SW 994,4 -
08.12.2019 21:00:00 8,3 4,4 25 14 50 27 SW 995,0 -
08.12.2019 20:00:00 8,4 4,4 22 12 - - WSW 995,6 -
08.12.2019 19:00:00 8,5 4,7 22 12 - - SW 995,9 -
08.12.2019 18:00:00 8,0 5,0 18 10 - - SW 996,5 -
08.12.2019 17:00:00 8,3 5,1 22 12 50 27 WSW 996,7 -
08.12.2019 16:00:00 8,0 6,4 18 10 - - W 996,6 -
08.12.2019 15:00:00 10,1 7,5 25 14 - - SW 996,1 -
08.12.2019 14:00:00 10,2 7,6 25 14 47 25 WSW 996,6 -
08.12.2019 13:00:00 9,9 8,3 29 16 - - SW 996,2 -
08.12.2019 12:00:00 9,4 8,3 25 14 54 29 SW 996,7 -
08.12.2019 11:00:00 9,2 8,1 29 16 54 29 SW 997,3 -
08.12.2019 10:00:00 9,3 7,2 32 18 - - SW 997,7 -
08.12.2019 09:00:00 8,6 6,8 29 16 50 27 SSW 998,2 -
08.12.2019 08:00:00 9,0 6,1 32 18 58 31 SW 999,4 -
08.12.2019 07:00:00 9,4 5,0 32 18 - - SW 1000,4 -
08.12.2019 06:00:00 9,0 4,6 29 16 54 29 SW 1001,3 -
08.12.2019 05:00:00 9,1 4,5 32 18 54 29 SW 1003,0 -
08.12.2019 04:00:00 9,2 5,0 29 16 - - SW 1004,5 -
08.12.2019 03:00:00 9,0 5,2 29 16 - - SW 1005,7 -
08.12.2019 02:00:00 8,7 5,6 25 14 - - SW 1006,8 -
08.12.2019 01:00:00 8,3 4,5 22 12 - - SW 1008,1 -
08.12.2019 00:00:00 8,3 4,2 22 12 - - SW 1009,5 -
07.12.2019 23:00:00 8,4 5,3 22 12 - - SW 1009,9 -
07.12.2019 22:00:00 8,5 5,4 22 12 - - SW 1010,8 -
07.12.2019 21:00:00 8,6 5,8 18 10 - - SW 1011,3 -
07.12.2019 20:00:00 8,8 6,5 18 10 - - WSW 1011,7 -
07.12.2019 19:00:00 8,7 6,7 18 10 - - WSW 1011,7 -
07.12.2019 18:00:00 8,8 6,9 22 12 - - WSW 1011,6 -
07.12.2019 17:00:00 8,9 7,2 18 10 - - WSW 1011,1 -
07.12.2019 16:00:00 9,0 7,3 14 8 - - WSW 1010,8 -
07.12.2019 15:00:00 9,0 7,3 18 10 - - WSW 1010,2 -
07.12.2019 14:00:00 9,0 7,3 18 10 - - W 1010,3 -
07.12.2019 13:00:00 8,6 7,5 18 10 - - WSW 1010,0 -
07.12.2019 12:00:00 8,9 7,3 18 10 - - W 1009,6 -
07.12.2019 11:00:00 8,5 7,3 22 12 - - WSW 1009,6 -
07.12.2019 10:00:00 8,3 7,3 22 12 - - WSW 1009,1 -
07.12.2019 09:00:00 8,5 7,3 22 12 - - W 1008,3 -
07.12.2019 08:00:00 8,6 7,2 22 12 - - W 1007,4 -
07.12.2019 07:00:00 8,5 7,3 22 12 - - W 1006,4 -
07.12.2019 06:00:00 8,4 7,4 22 12 - - W 1005,5 -
07.12.2019 05:00:00 8,6 7,2 18 10 - - W 1004,5 -

tt = temperature
td = dewpoint
ff = wind speed
fx = gusts
dd = wind direction
ppp = reduced air pressure
vv = visibility

Next stations